[[{"header":{"parameterUnit":"m.s-1","parameterCategory":1,"la1":30.2991,"la2":30.254,"lo1":-89.0895,"lo2":-89.0444,"dy":0.0017,"dx":0.0017,"nx":28,"ny":28,"refTime":"2025-06-20T03:00:00:Z","depth":0,"parameterNumber":2,"parameterNumberName":"U-component_of_WINDS"},"data":[0,0,0,0,0,0,0,0,0,0,0,0,0,0,0,0,0,0,0,0,0,0,0,0,0,0,0,0,0,0,0,0,0,0,0,0,0,0,0,0,0,0,0,0,0,0,0,0,0,0,0,0,0,0,0,0,0,0,1.1206,1.1207,0,1.1335,1.1336,1.1338,1.1383,1.1383,1.1382,1.1382,1.1515,1.1519,1.1523,0,0,0,0,0,0,0,0,0,0,0,0,0,1.0998,1.1001,1.1206,1.1207,1.1209,1.1335,1.1336,1.1338,1.1383,1.1383,1.1382,1.1382,1.1514,1.1519,1.1523,0,0,0,0,0,0,0,0,0,0,0,0,0,1.1104,1.1003,1.1205,1.1247,1.1252,1.1334,1.1336,1.1339,1.1384,1.1383,1.1382,1.1381,1.1512,1.1518,1.1524,1.1575,0,0,1.1542,1.1545,0,0,0,0,0,0,0,0,1.1097,1.1111,1.1239,1.1244,1.125,1.1342,1.1312,1.1418,1.1384,1.1333,1.1382,1.1381,1.1458,1.1469,1.1495,1.1582,1.1587,1.1543,1.1547,1.1549,1.1551,0,0,0,0,0,0,0,1.109,1.1106,1.1257,1.1241,1.1247,1.1258,1.1273,1.1332,1.1398,1.1338,1.1341,1.1356,1.1461,1.1489,1.1498,1.1589,1.1543,1.1548,1.1552,1.1554,1.1723,1.1724,0,0,0,0,0,0,1.1076,1.1099,1.1253,1.1261,1.117,1.1263,1.1279,1.1313,1.1398,1.141,1.1356,1.1358,1.1479,1.1491,1.1503,1.1568,1.1549,1.1555,1.1558,1.1722,1.1724,1.1724,0,0,0,0,0,0,1.1071,1.1089,1.1247,1.1181,1.1202,1.1267,1.1305,1.1316,1.1344,1.1412,1.1424,1.1372,1.1479,1.1494,1.1557,1.1573,1.1557,1.1563,1.1721,1.1723,1.1724,1.1698,0,0,0,0,0,0,1.1065,1.1087,1.1108,1.1181,1.1205,1.1299,1.1307,1.1319,1.1354,1.1357,1.143,1.1442,1.1479,1.1547,1.1562,1.1581,1.1568,1.172,1.1722,1.1724,1.1697,1.1698,1.1698,0,0,0,0,0,1.1057,1.1096,1.1108,1.1127,1.1232,1.13,1.1314,1.1356,1.1355,1.1376,1.1419,1.1439,1.1568,1.1553,1.1571,1.1591,1.1719,1.1721,1.1723,1.1697,1.1698,1.1698,0,0,0,0,0,0,1.1023,1.1106,1.1121,1.1184,1.1235,1.1307,1.1335,1.1356,1.1408,1.1408,1.1459,1.1475,1.1533,1.1568,1.155,1.1644,1.1645,1.1651,1.1619,1.162,1.1621,1.1611,1.1573,0,0,0,0,0,1.1023,1.1071,1.1141,1.1189,1.1214,1.127,1.1301,1.1329,1.1383,1.1405,1.1453,1.1505,1.1557,1.1591,1.1643,1.1702,1.1719,1.1725,1.1725,1.1725,1.173,1.1763,1.1766,1.1731,1.1731,1.1731,0,0,1.1023,1.1074,1.1101,1.1184,1.1226,1.1274,1.1288,1.1339,1.1375,1.1413,1.1474,1.1511,1.1572,1.1633,1.1662,1.1664,1.1743,1.1728,1.1728,1.1732,1.1765,1.1768,1.1771,1.1732,1.1732,1.1732,0,0,1.1047,1.1091,1.1136,1.1178,1.1241,1.1278,1.1288,1.1358,1.1384,1.1446,1.1475,1.1518,1.1608,1.165,1.1683,1.172,1.1741,1.1736,1.1739,1.177,1.1773,1.1776,1.1788,1.1792,1.174,1.174,1.174,0,1.1039,1.1113,1.1156,1.1205,1.124,1.1276,1.1321,1.136,1.1437,1.146,1.1461,1.1573,1.1617,1.1687,1.1696,1.1722,1.1735,1.1728,1.1769,1.1772,1.1775,1.1788,1.1793,1.1739,1.1739,1.1739,1.1739,0,1.11,1.115,1.1179,1.1251,1.129,1.1336,1.1386,1.142,1.1444,1.148,1.1542,1.1596,1.1658,1.1677,1.1702,1.175,1.175,1.1759,1.1761,1.1777,1.1789,1.1795,1.1738,1.1738,1.1738,1.1738,0,0,1.1107,1.1202,1.1212,1.1244,1.1316,1.1356,1.1404,1.1464,1.1492,1.1543,1.1584,1.1657,1.1666,1.1704,1.1733,1.176,1.1786,1.1767,1.1769,1.1768,1.1841,1.1833,1.1838,1.1799,1.18,1.1801,1.1836,0,1.1141,1.1228,1.1267,1.1337,1.1383,1.1417,1.1458,1.1506,1.1541,1.1585,1.1624,1.1675,1.1683,1.1706,1.1734,1.1776,1.1801,1.1774,1.1837,1.1839,1.1821,1.1845,1.1838,1.1868,1.1841,1.1842,1.1843,0,1.1192,1.1242,1.1316,1.138,1.1401,1.1438,1.1496,1.1538,1.1593,1.1616,1.1656,1.1684,1.1735,1.1732,1.1803,1.1784,1.1812,1.1836,1.1838,1.1846,1.1842,1.1853,1.1879,1.1883,1.1851,1.1851,1.185,0,1.1189,1.1275,1.133,1.1357,1.1434,1.1459,1.1492,1.1546,1.1579,1.163,1.1652,1.1707,1.1738,1.178,1.1822,1.1816,1.1888,1.1889,1.1908,1.1907,1.1922,1.192,1.1952,1.194,1.194,1.194,1.194,0,1.1222,1.1265,1.133,1.1363,1.1413,1.1457,1.1505,1.154,1.1588,1.1629,1.1661,1.1699,1.1751,1.1795,1.1828,1.1881,1.1894,1.1914,1.1923,1.1911,1.1909,1.1931,1.1929,1.1941,1.1941,1.194,1.194,0,1.1227,1.1272,1.1334,1.1401,1.1419,1.1452,1.151,1.1543,1.1579,1.163,1.1645,1.1701,1.1754,1.1799,1.187,1.1892,1.1946,1.1956,1.1927,1.1931,1.1947,1.1945,1.1994,1.2003,1.1985,1.1985,1.1985,0,1.1245,1.1279,1.135,1.1379,1.1412,1.1459,1.1493,1.1537,1.1571,1.1635,1.1661,1.1716,1.1763,1.1846,1.1893,1.1946,1.1958,1.1971,1.1966,1.1953,1.1957,1.1955,1.1958,1.1971,1.1971,1.1971,1.1971,0,1.1272,1.1292,1.134,1.1395,1.1434,1.1479,1.1525,1.1547,1.1601,1.1637,1.1691,1.1727,1.1798,1.1852,1.1911,1.1945,1.1967,1.1972,1.198,1.1969,1.195,1.196,1.1927,1.1971,1.1971,1.1971,1.1971,1.1971,1.1284,1.1316,1.137,1.1421,1.146,1.1502,1.1537,1.1576,1.1622,1.1683,1.1707,1.1762,1.1814,1.1895,1.1928,1.1972,1.1975,1.1986,1.1989,1.199,1.1988,1.1943,1.1983,1.1983,1.1983,1.1983,1.1983,0,1.1313,1.1349,1.1395,1.1458,1.1498,1.1515,1.1566,1.1599,1.1647,1.1694,1.1739,1.18,1.1853,1.1903,1.1957,1.1982,1.1994,1.1995,1.1994,1.2001,1.1983,1.1971,1.1985,1.1985,1.1985,1.1985,1.1985,1.1985,1.1332,1.1385,1.1412,1.1484,1.152,1.1574,1.1602,1.1641,1.1678,1.1746,1.1789,1.1821,1.1869,1.1927,1.1975,1.1989,1.2007,1.2006,1.2022,1.2003,1.2003,1.2002,1.1991,1.201,1.201,1.2037,1.2037,1.2037]},{"header":{"parameterUnit":"m.s-1","parameterCategory":1,"la1":30.2991,"la2":30.254,"lo1":-89.0895,"lo2":-89.0444,"dy":0.0017,"dx":0.0017,"nx":28,"ny":28,"refTime":"2025-06-20T03:00:00:Z","depth":0,"parameterNumber":3,"parameterNumberName":"V-component_of_WINDS"},"data":[0,0,0,0,0,0,0,0,0,0,0,0,0,0,0,0,0,0,0,0,0,0,0,0,0,0,0,0,0,0,0,0,0,0,0,0,0,0,0,0,0,0,0,0,0,0,0,0,0,0,0,0,0,0,0,0,0,0,3.9645,3.9644,0,3.9605,3.9605,3.9604,3.9599,3.9599,3.96,3.96,3.9553,3.9552,3.955,0,0,0,0,0,0,0,0,0,0,0,0,0,3.971,3.9709,3.9645,3.9644,3.9644,3.9605,3.9605,3.9604,3.9599,3.9599,3.96,3.96,3.9554,3.9552,3.955,0,0,0,0,0,0,0,0,0,0,0,0,0,3.9677,3.9709,3.9645,3.9637,3.9636,3.9605,3.9604,3.9604,3.9599,3.96,3.96,3.9601,3.9555,3.9552,3.955,3.9523,0,0,3.9542,3.9541,0,0,0,0,0,0,0,0,3.9679,3.9675,3.9638,3.9637,3.9636,3.9608,3.961,3.9576,3.9599,3.9613,3.96,3.9601,3.9571,3.9567,3.9558,3.952,3.9518,3.9542,3.9541,3.954,3.9539,0,0,0,0,0,0,0,3.9681,3.9676,3.9629,3.9638,3.9636,3.9633,3.9629,3.9604,3.9588,3.9612,3.9611,3.9607,3.957,3.956,3.9557,3.9518,3.9542,3.954,3.9538,3.9538,3.9454,3.9453,0,0,0,0,0,0,3.9686,3.9678,3.963,3.9628,3.966,3.9631,3.9627,3.9616,3.9589,3.9585,3.9606,3.9607,3.9564,3.956,3.9555,3.952,3.954,3.9537,3.9536,3.9454,3.9453,3.9453,0,0,0,0,0,0,3.9687,3.9682,3.9632,3.9653,3.9646,3.963,3.9618,3.9615,3.9605,3.9585,3.9582,3.96,3.9564,3.9558,3.9531,3.9519,3.9536,3.9534,3.9455,3.9454,3.9453,3.9451,0,0,0,0,0,0,3.9689,3.9682,3.9673,3.9653,3.9645,3.961,3.9617,3.9614,3.9602,3.9602,3.9578,3.9574,3.9564,3.9534,3.9528,3.9515,3.9532,3.9456,3.9455,3.9453,3.9452,3.945,3.9448,0,0,0,0,0,3.9692,3.9673,3.9673,3.9667,3.9634,3.961,3.9605,3.9596,3.9601,3.9591,3.9577,3.9575,3.9521,3.9532,3.9525,3.9511,3.9457,3.9455,3.9454,3.9453,3.945,3.9448,0,0,0,0,0,0,3.9691,3.9671,3.967,3.9645,3.9629,3.9609,3.9596,3.9594,3.9574,3.9575,3.9563,3.9557,3.9529,3.9517,3.9529,3.9482,3.9489,3.9486,3.9491,3.9488,3.9487,3.9489,3.953,0,0,0,0,0,3.9689,3.9672,3.9654,3.9634,3.9626,3.9613,3.9601,3.9596,3.9578,3.9571,3.9555,3.9537,3.9515,3.9501,3.9481,3.9451,3.9444,3.9437,3.9435,3.9434,3.9431,3.9412,3.9408,3.9447,3.9447,3.9447,0,0,3.9682,3.9669,3.9659,3.9634,3.9621,3.9602,3.9607,3.9587,3.9572,3.9567,3.954,3.9528,3.9506,3.9477,3.9463,3.9466,3.9419,3.9432,3.9431,3.9428,3.941,3.9406,3.9403,3.9446,3.9446,3.9446,0,0,3.9661,3.965,3.9632,3.9619,3.96,3.9591,3.9586,3.9566,3.9558,3.9532,3.9527,3.9508,3.9472,3.9456,3.9443,3.9415,3.9411,3.9408,3.9397,3.9379,3.9376,3.9373,3.9362,3.9358,3.9405,3.9405,3.9405,0,3.9655,3.9629,3.9622,3.9602,3.959,3.9586,3.9566,3.9553,3.9527,3.9518,3.9522,3.9476,3.9461,3.9427,3.942,3.9411,3.9403,3.9411,3.9378,3.9375,3.9372,3.936,3.9356,3.9405,3.9405,3.9405,3.9405,0,3.9622,3.9603,3.959,3.9567,3.9554,3.9534,3.9521,3.9508,3.9503,3.9493,3.9464,3.9446,3.9421,3.9413,3.9407,3.9377,3.9379,3.9381,3.9387,3.9368,3.9357,3.9353,3.9405,3.9405,3.9405,3.9405,0,0,3.9599,3.9573,3.9568,3.9557,3.9535,3.952,3.9499,3.9476,3.9464,3.9446,3.9426,3.9396,3.9397,3.9382,3.9374,3.9359,3.9335,3.9361,3.9361,3.9356,3.9298,3.9297,3.9292,3.9333,3.9332,3.9331,3.93,0,3.9575,3.9539,3.9532,3.95,3.9482,3.9477,3.9459,3.9442,3.9431,3.9412,3.9399,3.9377,3.9381,3.9372,3.9357,3.9342,3.9323,3.9344,3.9312,3.9311,3.9317,3.9287,3.9285,3.9256,3.9296,3.9295,3.9294,0,3.9542,3.9525,3.9492,3.9472,3.9463,3.9447,3.9425,3.9408,3.9388,3.9381,3.9364,3.9358,3.9333,3.9342,3.9306,3.932,3.9306,3.9297,3.9295,3.9291,3.9301,3.928,3.9247,3.9242,3.9288,3.9288,3.9289,0,3.9527,3.9495,3.9471,3.9462,3.9439,3.9427,3.9416,3.9397,3.9383,3.9363,3.9353,3.933,3.9316,3.9297,3.9283,3.9291,3.9248,3.9256,3.9239,3.9239,3.9229,3.923,3.9192,3.9223,3.9223,3.9223,3.9223,0,3.95,3.9479,3.9464,3.945,3.9426,3.9416,3.9392,3.9381,3.9363,3.9344,3.9338,3.932,3.9304,3.9283,3.9272,3.9243,3.9237,3.9229,3.9226,3.9229,3.9229,3.9219,3.922,3.9222,3.9222,3.9222,3.9222,0,3.9479,3.9469,3.9442,3.9422,3.9416,3.9399,3.9381,3.9365,3.9354,3.933,3.9323,3.9305,3.928,3.9265,3.9232,3.9225,3.9191,3.919,3.9199,3.9197,3.9181,3.9182,3.9134,3.9126,3.9163,3.9163,3.9163,0,3.9462,3.9446,3.9425,3.9413,3.9402,3.9382,3.9369,3.9358,3.9343,3.9319,3.9305,3.928,3.9259,3.9218,3.92,3.9174,3.9171,3.9156,3.9167,3.917,3.9169,3.917,3.9167,3.9154,3.9153,3.9153,3.9153,0,3.9432,3.9427,3.9409,3.9389,3.9373,3.9356,3.9339,3.9328,3.9314,3.9298,3.9273,3.9257,3.9224,3.9197,3.917,3.9156,3.9151,3.915,3.9144,3.9146,3.9152,3.9147,3.9192,3.9151,3.9151,3.9151,3.9151,3.9151,3.9411,3.9397,3.9379,3.9359,3.9345,3.9329,3.9312,3.93,3.928,3.9254,3.9248,3.9221,3.9199,3.9162,3.9147,3.9124,3.9126,3.9119,3.9117,3.9114,3.9113,3.9157,3.9119,3.9119,3.9119,3.9119,3.9119,0,3.938,3.9369,3.935,3.9327,3.931,3.9309,3.929,3.9275,3.9252,3.9233,3.9213,3.9183,3.9157,3.9138,3.9111,3.9096,3.9092,3.9089,3.9089,3.9085,3.9114,3.912,3.9092,3.9092,3.9092,3.9092,3.9092,3.9092,3.9362,3.9337,3.933,3.9297,3.9285,3.926,3.9249,3.9233,3.9218,3.9185,3.9165,3.9153,3.9133,3.9104,3.908,3.9074,3.9064,3.906,3.9054,3.9081,3.9084,3.9086,3.9093,3.9058,3.9058,3.9027,3.9027,3.9027]}]]